Regional Weather Roundup
Issued by NWS

Home | Current Version | Previous Version | Graphics & Text | Print | Product List | Glossary On
Versions: 1 2 3 4 5 6 7 8 9 10 11 12 13 14 15 16 17 18 19 20 21 22 23 24 25 26 27
000
ASUS45 KTFX 221310
RWRMT
MONTANA REGIONAL WEATHER ROUNDUP
NATIONAL WEATHER SERVICE GREAT FALLS MT
600 AM MST WED FEB 22 2017

NOTE: "FAIR" INDICATES FEW OR NO CLOUDS BELOW 12000 FEET WITH NO
SIGNIFICANT WEATHER AND/OR OBSTRUCTIONS TO VISIBILITY.

MTZ001>007-043-221400-
WEST OF THE DIVIDE

CITY           SKY/WX    TMP DP  RH WIND       PRES   REMARKS
KALISPELL      MOCLDY    31  29  92 SE6       29.93R WCI  25
MISSOULA       CLOUDY    32  31  96 CALM      29.96S
BUTTE          LGT SNOW  28  24  85 S3        29.89R FOG
MULLAN PASS    LGT SNOW  24  22  91 CALM      29.87S VSB 3/4
ANACONDA         N/A     28  25  86 N5        29.91R
DEER LODGE       N/A     28  28 100 N3        29.94R
EUREKA           N/A     28  27  93 CALM      29.95R VSB 0
HAMILTON         N/A     34  28  80 S5        29.95S
LIBBY            N/A     30  30 100 CALM      29.97R
RONAN            N/A     34  30  85 CALM      29.98R
$$

MTZ008-052>055-221400-
SOUTHWEST MONTANA

CITY           SKY/WX    TMP DP  RH WIND       PRES   REMARKS
BOZEMAN        CLOUDY    33  26  75 NW6       29.88R WCI  28
DILLON         MOCLDY    30  21  69 SW16      29.88R WCI  19
W YELLOWSTONE  MIX PCPN  25  21  86 W3        29.90R
ENNIS          CLOUDY    32  18  55 S10       29.94S WCI  24
THREE FORKS      N/A     37  37 100 W9        29.89R WCI  30
TWIN BRIDGES     N/A     31  22  69 CALM      29.90
$$

MTZ009-010-012-014-046-048-049-054-221400-
EAST SLOPES AND CENTRAL MONTANA

CITY           SKY/WX    TMP DP  RH WIND       PRES   REMARKS
CUT BANK       MOCLDY    25  21  85 CALM      29.82R
GREAT FALLS    CLOUDY    31  30  96 SW7       29.84S WCI  24
MALMSTROM AFB  LGT RAIN  31  32 100 CALM      29.86R
HELENA         CLOUDY    36  26  67 W10       29.88R WCI  28
AUGUSTA        CLOUDY    29  27  93 W9        29.83R WCI  20
BOWMANS CRNR   CLOUDY    29  27  91 S6        29.83R WCI  23
CHOTEAU          N/A     30  27  86 SW5       29.85S
CONRAD           N/A     27  27 100 N1        29.87R
POWER          MOCLDY    29  29 100 CALM      29.83R
RAYNESFORD     FLURRIES  32  30  93 CALM      29.84R
ULM            MOCLDY    31  31 100 MISG      29.85R
$$

MTZ011-013-016-021-045-047-050-051-221400-
NORTH CENTRAL MONTANA

CITY           SKY/WX    TMP DP  RH WIND       PRES   REMARKS
HAVRE          CLOUDY    31  30  96 E6        29.87R WCI  25
LEWISTOWN      LGT SNOW  30  29  96 W10       29.83R FOG     WCI  21
N BAR RANCH    MIX PCPN  30  27  86 NW13G20   29.81R WCI  20
CHINOOK          N/A     30  30 100 CALM      29.89R
DENTON         FLURRIES  31  31  99 NW13      29.81R WCI  22
FORT BENTON      N/A     34  34 100 CALM      29.88R
GEYSER         MOCLDY    31  29  92 W13       29.83R WCI  22
GRASS RANGE    FLURRIES  32  30  94 W13       29.79R WCI  22
JUDITH GAP     LGT SNOW  29  28  96 N12       29.81R WCI  20
ROY            LGT SNOW  31  30  99 MISG      29.80R FOG
STANFORD       FLURRIES  31  30  94 NW14      29.82R WCI  21
WINIFRED       LGT SNOW  30 N/A N/A NW9       29.83R VSB 7/8 WCI  22
$$

MTZ017>020-022>027-061-062-221400-
NORTHEAST MONTANA

CITY           SKY/WX    TMP DP  RH WIND       PRES   REMARKS
GLASGOW        CLOUDY    31  28  89 NW7       29.85R WCI  24
JORDAN           N/A     32  29  88 N9        29.81R WCI  24
SIDNEY         LGT SNOW  32  31  96 N14G23    29.79R FOG     WCI  22
WOLF POINT     FLURRIES  33  29  85 NE9       29.83R WCI  25
PLENTYWOOD       N/A     28  23  80 N13       29.82R WCI  18
POPLAR           N/A     30  28  93 N10       29.84R WCI  21
SCOBEY           N/A     28  20  72 N8        29.83  WCI  20
$$

MTZ028>42-056>058-221400-
SOUTHCENTRAL AND SOUTHEAST MONTANA

CITY           SKY/WX    TMP DP  RH WIND       PRES   REMARKS
BAKER          MIX PCPN  32  32 100 NW7       29.71R VSB 1/4 WCI  26
BILLINGS       CLOUDY    38  25  59 NW10      29.82R WCI  31
LIVINGSTON     CLOUDY    36  22  56 W23       29.83R WCI  24
MILES CITY     LGT RAIN  35  33  92 NW7       29.75R WCI  29
BIG TIMBER     CLOUDY    36  25  64 W21G28    29.85S WCI  24
FORSYTH          N/A     36  36 100 W10       29.77R WCI  28
HARLOWTON      MOCLDY    33  26  77 W21       29.81R WCI  20
LAUREL           N/A     41  22  47 W15       29.82R
$$

REGIONAL REPORTS...DAKOTAS

CITY           SKY/WX    TMP DP  RH WIND       PRES   REMARKS
WILLISTON      LGT SNOW  32  30  92 N14       29.81R FOG     WCI  22
MINOT          LGT SNOW  32  29  88 N16       29.76R FOG     WCI  21
DICKINSON      CLOUDY    31  30  96 N12       29.69R WCI  22
BEACH            N/A    N/A N/A N/A MISG        N/A
CROSBY         CLOUDY    30  28  93 N13       29.85R WCI  20
TIOGA          MIX PCPN  30  30 100 NE16      29.79S WCI  19
WATFORD CITY   LGT SNOW  30  30 100 N10       29.77S WCI  21
BISMARCK       LGT RAIN  35  33  92 N8        29.70S WCI  29
GRAND FORKS    LGT RAIN  34  29  82 N13       29.69F WCI  25
FARGO          CLOUDY    33  33 100 N9        29.66S FOG     WCI  25
BUFFALO SD       N/A     37  34  89 W8        29.62F WCI  31
RAPID CITY     CLOUDY    46  32  58 W17       29.70S
$$

REGIONAL REPORTS...WYOMING/IDAHO/WASHINGTON

CITY           SKY/WX    TMP DP  RH WIND       PRES   REMARKS
GILLETTE       CLOUDY    38  24  57 NW12      29.79R WCI  30
SHERIDAN       CLOUDY    36  19  50 VRB7      29.79R WCI  30
BUFFALO WY     MOCLDY    39  11  31 NW7       29.79R
CODY           PTCLDY    35  17  47 NE6       29.83R WCI  30
YELLOWSTONE LA   N/A     17  14  88 VRB5      29.88S
IDAHO FALLS    PTCLDY    30  27  88 S21G29    29.97F WCI  17
SALMON         MOCLDY    30  28  93 CALM      29.95S
BOISE          PTCLDY    32  26  78 CALM      30.01F
SPOKANE        LGT SNOW  32  31  96 W3        30.01R VSB 1
$$

REGIONAL REPORTS...ALBERTA

CITY           SKY/WX    TMP DP  RH WIND       PRES   REMARKS
EDMONTON       CLOUDY    23  19  86 N3        29.94S
CALGARY        CLOUDY    27  25  93 N14       29.89R FOG     WCI  15
LETHBRIDGE     CLOUDY    28  28 100 NW7       29.86R WCI  21
MEDICINE HAT   CLOUDY    30  30 100 N6        29.87R WCI  24
WATERTON GATE    N/A     30  19  64 SW10        N/A  WCI  21
MILK RIVER       N/A     25  25 100 NW5         N/A
$$

REGIONAL REPORTS...SASKATCHEWAN

CITY           SKY/WX    TMP DP  RH WIND       PRES   REMARKS
SWIFT CURRENT  CLOUDY    27  27 100 W5        29.85R FOG
REGINA         CLOUDY    28  27  93 NW5       29.86R
SASKATOON      FLURRIES  30  27  86 W6        29.87S WCI  24
CYPRESS HILLS    N/A     23  19  86 CALM        N/A
VAL MARIE        N/A     28  27  93 N2          N/A
ROCKGLEN         N/A     27  23  86 NE7         N/A  WCI  19
ASSINIBOIA       N/A     25  19  80 N12         N/A  WCI  14
$$




USA.gov is the U.S. government's official web portal to all federal, state and local government web resources and services.